Starlink 4281

operational
NORAD ID: 53017 Int'l Des: 2022-076 Owner: SPXS Country: US Constellation: starlink
LEOCIRCULAR

About Starlink 4281

Description loading...

Live Position

Loading 3D Globe...

Upcoming Passes

Altitude History

Altitude vs Time

uPlot chart will show altitude changes over time

Two-Line Element Set

1 53017U 22076AH 25312.86105456 .00000221 00000-0 32007-4 0 9992
2 53017 53.2167 266.5403 0001913 83.8561 276.2649 15.08830293184753
Epoch: Nov 8, 2025 • Age: 56 hours

Current Status

Altitude 544.9 km
Velocity 7.60 km/s
Sub-Earth Point 52.61°N, 122.24°W
Launch Date Jul 7, 2022
Age 3.3 years
Type internet

Technical Details

Classification Payload
Mass 297.00 kg
Dry Mass 275.00 kg
Total Mass 297.00 kg
Length 0.20 m
Diameter 2.80 m
Span 9.00 m
Shape Box + pan
Manufacturer SPXS
Bus Type Starlink
Phase Status In Orbit
Owner/State SPXS/US

Large Constellations

Loading constellations...